AJ5TT Weather Reports


Display with metric or nautical units.
time (UTC)temp
F
wind
direction
speed
MPH
gust
MPH
rain 1hr
in
rain 24hr
in
rain mn
in
humidity
%
barometer
mb
20260503211605 79 294 3.0 8.0 0.00 0.00 0.00 39 1020.3
20260503210057 77 221 1.0 5.0 0.00 0.00 0.00 40 1020.4
20260503204557 78 340 1.0 6.0 0.00 0.00 0.00 40 1020.5
20260503203053 79 45 2.0 6.0 0.00 0.00 0.00 40 1020.9
20260503201555 80 188 3.0 11.0 0.00 0.00 0.00 34 1021.3
20260503200055 80 290 2.0 9.0 0.00 0.00 0.00 40 1021.5
20260503194558 79 63 1.0 5.0 0.00 0.00 0.00 36 1021.6
20260503193120 79 68 3.0 9.0 0.00 0.00 0.00 37 1021.8
20260503191600 78 352 2.0 5.0 0.00 0.00 0.00 40 1022.1
20260503190055 80 28 3.0 9.0 0.00 0.00 0.00 36 1022.4
20260503184557 78 337 2.0 7.0 0.00 0.00 0.00 37 1022.5
20260503183101 78 179 1.0 4.0 0.00 0.00 0.00 37 1022.7
20260503181620 79 30 1.0 8.0 0.00 0.00 0.00 36 1023.0
20260503180126 79 71 1.0 3.0 0.00 0.00 0.00 38 1023.1
20260503174557 78 244 2.0 6.0 0.00 0.00 0.00 39 1023.4
20260503173057 78 108 1.0 10.0 0.00 0.00 0.00 38 1023.6
20260503171554 78 59 1.0 4.0 0.00 0.00 0.00 40 1023.7
20260503120108 53 0 0.0 0.0 0.00 0.00 0.00 93 1022.6
20260503100115 54 0 0.0 0.0 0.00 0.00 0.00 92 1021.7
20260503081600 55 0 0.0 0.0 0.00 0.00 0.00 90 1021.8
20260503071613 56 0 0.0 0.0 0.00 0.00 0.00 89 1021.6
20260503070104 56 0 0.0 0.0 0.00 0.00 0.00 89 1021.4
20260503060115 57 0 0.0 0.0 0.00 0.00 0.00 85 1021.5
20260503054553 57 0 0.0 0.0 0.00 0.00 0.00 84 1021.4
20260503053055 58 0 0.0 0.0 0.00 0.00 0.00 83 1021.3
20260503051552 58 0 0.0 0.0 0.00 0.00 0.00 83 1021.1
20260503050052 58 0 0.0 0.0 0.00 0.00 0.00 82 1021.1
20260503044622 58 0 0.0 0.0 0.00 0.00 0.00 80 1020.9
20260503043051 59 0 0.0 0.0 0.00 0.00 0.00 78 1021.0
20260503041554 59 0 0.0 0.0 0.00 0.00 0.00 74 1021.1
20260503040058 60 0 0.0 0.0 0.00 0.00 0.00 74 1021.0
20260503034558 61 0 0.0 0.0 0.00 0.01 0.00 72 1020.9
20260503033055 61 0 0.0 0.0 0.00 0.01 0.00 71 1020.7
20260503031553 63 0 0.0 2.0 0.00 0.01 0.00 69 1020.5
20260503030104 62 0 0.0 0.0 0.00 0.01 0.00 69 1020.6
20260503024600 63 0 0.0 0.0 0.00 0.10 0.00 68 1020.6
20260503023100 62 0 0.0 0.0 0.00 0.10 0.00 68 1020.5
20260503021558 63 0 0.0 2.0 0.00 0.10 0.00 64 1020.3
20260503014557 64 0 0.0 0.0 0.00 0.15 0.00 62 1020.1
20260503013112 66 0 0.0 0.0 0.00 0.15 0.00 57 1019.8
20260503011555 68 0 0.0 2.0 0.00 0.15 0.00 55 1019.8
20260503010051 70 9 2.0 4.0 0.00 0.15 0.00 51 1019.6
20260503004603 71 44 3.0 5.0 0.00 0.35 0.00 50 1019.4
20260503003054 72 34 3.0 8.0 0.00 0.35 0.00 47 1019.2
20260503001557 73 18 3.0 9.0 0.00 0.35 0.00 46 1019.1
20260503000103 74 29 6.0 12.0 0.00 0.35 0.00 44 1018.9
20260502234610 74 26 4.0 10.0 0.00 0.44 0.00 44 1018.9
20260502233055 75 23 5.0 16.0 0.00 0.44 0.00 42 1018.8
20260502231555 75 13 7.0 11.0 0.00 0.44 0.00 40 1018.6
20260502230055 75 352 6.0 14.0 0.00 0.44 0.00 42 1018.6
20260502224555 76 9 4.0 13.0 0.00 0.46 0.00 45 1018.4
20260502223102 75 22 8.0 13.0 0.00 0.46 0.00 41 1018.6
20260502221600 76 55 7.0 13.0 0.00 0.46 0.00 41 1018.6
20260502214613 76 53 6.0 13.0 0.00 0.76 0.00 41 1018.6
20260502213118 75 83 10.0 16.0 0.00 0.76 0.00 41 1018.6